| time (UTC) | temp C | wind direction | speed KPH | gust KPH | rain 1hr cm | rain 24hr cm | rain mn cm | humidity % | barometer mb |
| 20260901112020 | 20 | 0.0 | 3.2 | 0.00 | 0.51 | 0.38 | 93 | 1012.5 | |
| 20260901111040 | 20 | 0.0 | 0.0 | 0.00 | 0.51 | 0.38 | 93 | 1012.4 | |
| 20260901110103 | 20 | 0.0 | 3.2 | 0.00 | 0.51 | 0.38 | 93 | 1012.3 | |
| 20260901105021 | 20 | 68 | 1.6 | 3.2 | 0.00 | 0.51 | 0.38 | 93 | 1012.3 |
| 20260901104020 | 20 | 0.0 | 4.8 | 0.03 | 0.51 | 0.38 | 93 | 1012.2 | |
| 20260901103024 | 20 | 0.0 | 0.0 | 0.15 | 0.51 | 0.38 | 93 | 1012.2 | |
| 20260901102020 | 20 | 0.0 | 1.6 | 0.20 | 0.51 | 0.38 | 93 | 1012.0 | |
| 20260901101020 | 20 | 0.0 | 1.6 | 0.20 | 0.51 | 0.38 | 93 | 1012.1 | |
| 20260901100020 | 20 | 0.0 | 1.6 | 0.20 | 0.51 | 0.38 | 93 | 1012.1 | |
| 20260901095020 | 20 | 0.0 | 3.2 | 0.20 | 0.51 | 0.38 | 93 | 1012.5 | |
| 20260901094020 | 20 | 0.0 | 1.6 | 0.18 | 0.48 | 0.36 | 93 | 1012.7 | |
| 20260901093022 | 20 | 248 | 1.6 | 3.2 | 0.05 | 0.36 | 0.23 | 94 | 1012.8 |
| 20260901092020 | 20 | 0.0 | 1.6 | 0.00 | 0.30 | 0.18 | 93 | 1012.3 | |
| 20260901091023 | 20 | 135 | 1.6 | 1.6 | 0.00 | 0.30 | 0.18 | 93 | 1012.2 |
| 20260901090021 | 20 | 158 | 1.6 | 3.2 | 0.00 | 0.30 | 0.18 | 93 | 1012.0 |
| 20260901085022 | 20 | 180 | 3.2 | 4.8 | 0.00 | 0.30 | 0.18 | 93 | 1012.0 |
| 20260901084021 | 20 | 158 | 3.2 | 4.8 | 0.00 | 0.30 | 0.18 | 93 | 1012.1 |
| 20260901083042 | 20 | 158 | 1.6 | 4.8 | 0.00 | 0.30 | 0.18 | 93 | 1012.2 |
| 20260901082041 | 20 | 158 | 4.8 | 6.4 | 0.00 | 0.30 | 0.18 | 93 | 1012.3 |
| 20260901081021 | 20 | 0.0 | 1.6 | 0.03 | 0.30 | 0.18 | 93 | 1012.6 | |
| 20260901080021 | 20 | 0.0 | 3.2 | 0.13 | 0.30 | 0.18 | 93 | 1012.5 | |
| 20260901075021 | 20 | 0.0 | 3.2 | 0.15 | 0.30 | 0.18 | 93 | 1012.6 | |
| 20260901074041 | 20 | 0.0 | 0.0 | 0.15 | 0.30 | 0.18 | 93 | 1012.8 | |
| 20260901073021 | 20 | 0.0 | 0.0 | 0.15 | 0.30 | 0.18 | 93 | 1012.9 | |
| 20260901072021 | 20 | 0.0 | 0.0 | 0.15 | 0.30 | 0.18 | 93 | 1013.0 | |
| 20260901071041 | 20 | 0.0 | 0.0 | 0.13 | 0.28 | 0.15 | 93 | 1013.0 | |
| 20260901070021 | 20 | 0.0 | 0.0 | 0.03 | 0.18 | 0.05 | 93 | 1013.1 | |
| 20260901065041 | 20 | 0.0 | 0.0 | 0.00 | 0.15 | 0.03 | 93 | 1013.2 | |
| 20260901064021 | 20 | 0.0 | 0.0 | 0.00 | 0.15 | 0.03 | 93 | 1013.3 | |
| 20260901063041 | 20 | 0.0 | 0.0 | 0.00 | 0.15 | 0.03 | 93 | 1013.3 | |
| 20260901062021 | 20 | 0.0 | 1.6 | 0.00 | 0.15 | 0.03 | 93 | 1013.4 | |
| 20260901061021 | 20 | 0.0 | 1.6 | 0.00 | 0.15 | 0.03 | 93 | 1013.4 | |
| 20260901055021 | 20 | 0.0 | 0.0 | 0.00 | 0.15 | 0.03 | 93 | 1013.6 | |
| 20260901054021 | 20 | 0.0 | 0.0 | 0.00 | 0.15 | 0.03 | 93 | 1013.7 | |
| 20260901053021 | 20 | 0.0 | 0.0 | 0.00 | 0.15 | 0.03 | 93 | 1014.0 | |
| 20260901052021 | 20 | 0.0 | 0.0 | 0.00 | 0.15 | 0.03 | 93 | 1014.0 | |
| 20260901051021 | 20 | 0.0 | 0.0 | 0.00 | 0.15 | 0.03 | 92 | 1013.9 | |
| 20260901050021 | 20 | 0.0 | 0.0 | 0.03 | 0.15 | 0.03 | 92 | 1013.9 | |
| 20260901045021 | 20 | 0.0 | 0.0 | 0.03 | 0.15 | 0.03 | 92 | 1013.8 | |
| 20260901044020 | 20 | 0.0 | 0.0 | 0.03 | 0.15 | 0.03 | 92 | 1014.1 | |
| 20260901043021 | 20 | 0.0 | 0.0 | 0.03 | 0.15 | 0.03 | 92 | 1014.3 | |
| 20260901042020 | 20 | 0.0 | 0.0 | 0.03 | 0.15 | 0.03 | 92 | 1014.3 | |
| 20260901041021 | 20 | 0.0 | 0.0 | 0.03 | 0.15 | 0.03 | 92 | 1014.4 | |
| 20260901040021 | 20 | 0.0 | 0.0 | 0.00 | 0.13 | 0.13 | 92 | 1014.3 | |
| 20260901035021 | 20 | 0.0 | 0.0 | 0.00 | 0.13 | 0.13 | 92 | 1014.3 | |
| 20260901034020 | 20 | 0.0 | 0.0 | 0.00 | 0.13 | 0.13 | 92 | 1014.2 | |
| 20260901033020 | 20 | 0.0 | 0.0 | 0.00 | 0.13 | 0.13 | 92 | 1014.2 | |
| 20260901032021 | 20 | 0.0 | 1.6 | 0.00 | 0.13 | 0.13 | 92 | 1014.4 | |
| 20260901031021 | 20 | 0.0 | 0.0 | 0.00 | 0.13 | 0.13 | 92 | 1014.5 | |
| 20260901030020 | 20 | 0.0 | 1.6 | 0.00 | 0.13 | 0.13 | 92 | 1014.4 | |
| 20260901025020 | 20 | 0.0 | 0.0 | 0.00 | 0.13 | 0.13 | 92 | 1014.4 | |
| 20260901024040 | 20 | 0.0 | 0.0 | 0.00 | 0.13 | 0.13 | 92 | 1014.5 | |
| 20260901023021 | 20 | 135 | 1.6 | 3.2 | 0.00 | 0.13 | 0.13 | 91 | 1014.5 |
| 20260901022021 | 20 | 0.0 | 0.0 | 0.00 | 0.13 | 0.13 | 91 | 1014.6 | |
| 20260901021040 | 20 | 0.0 | 0.0 | 0.00 | 0.13 | 0.13 | 91 | 1014.6 | |
| 20260901020021 | 20 | 0.0 | 3.2 | 0.00 | 0.13 | 0.13 | 91 | 1014.8 | |
| 20260901015020 | 20 | 0.0 | 0.0 | 0.00 | 0.13 | 0.13 | 91 | 1014.9 | |
| 20260901014040 | 20 | 0.0 | 0.0 | 0.00 | 0.13 | 0.13 | 91 | 1014.9 | |
| 20260901013020 | 20 | 0.0 | 0.0 | 0.00 | 0.13 | 0.13 | 91 | 1014.9 | |
| 20260901012020 | 20 | 0.0 | 0.0 | 0.00 | 0.13 | 0.13 | 91 | 1015.0 | |
| 20260901011020 | 20 | 0.0 | 0.0 | 0.00 | 0.13 | 0.13 | 90 | 1014.9 | |
| 20260901010020 | 20 | 0.0 | 1.6 | 0.00 | 0.13 | 0.13 | 90 | 1014.8 | |
| 20260901005020 | 20 | 0.0 | 0.0 | 0.00 | 0.13 | 0.13 | 90 | 1014.8 | |
| 20260901004020 | 20 | 0.0 | 0.0 | 0.00 | 0.13 | 0.13 | 90 | 1014.8 | |
| 20260901003020 | 20 | 0.0 | 0.0 | 0.00 | 0.13 | 0.13 | 89 | 1014.7 | |
| 20260901002022 | 20 | 0.0 | 0.0 | 0.00 | 0.13 | 0.13 | 89 | 1014.6 | |
| 20260901001020 | 20 | 0.0 | 0.0 | 0.03 | 0.13 | 0.13 | 89 | 1014.5 | |
| 20260901000020 | 20 | 0.0 | 0.0 | 0.05 | 0.13 | 0.13 | 89 | 1014.6 | |
| 20260831235023 | 20 | 158 | 1.6 | 3.2 | 0.05 | 0.13 | 0.13 | 89 | 1014.5 |
| 20260831234020 | 20 | 158 | 1.6 | 3.2 | 0.05 | 0.13 | 0.13 | 89 | 1014.6 |
| 20260831233040 | 20 | 0.0 | 0.0 | 0.05 | 0.13 | 0.13 | 88 | 1014.7 | |
| 20260831232020 | 20 | 0.0 | 0.0 | 0.05 | 0.13 | 0.13 | 88 | 1014.8 | |
| 20260831231041 | 20 | 0.0 | 1.6 | 0.03 | 0.10 | 0.10 | 88 | 1014.7 | |
| 20260831230020 | 21 | 135 | 1.6 | 3.2 | 0.00 | 0.08 | 0.08 | 87 | 1014.8 |
| 20260831225040 | 21 | 0.0 | 1.6 | 0.00 | 0.08 | 0.08 | 87 | 1014.8 | |
| 20260831224100 | 21 | 0.0 | 1.6 | 0.00 | 0.08 | 0.08 | 87 | 1014.9 | |
| 20260831223022 | 21 | 180 | 4.8 | 8.0 | 0.00 | 0.08 | 0.08 | 86 | 1014.9 |
| 20260831222042 | 21 | 180 | 3.2 | 8.0 | 0.00 | 0.08 | 0.08 | 85 | 1014.9 |
| 20260831221043 | 21 | 158 | 3.2 | 6.4 | 0.00 | 0.08 | 0.08 | 85 | 1014.9 |
| 20260831220041 | 21 | 158 | 3.2 | 8.0 | 0.00 | 0.08 | 0.08 | 85 | 1015.0 |
| 20260831215022 | 21 | 135 | 1.6 | 4.8 | 0.00 | 0.08 | 0.08 | 85 | 1015.0 |
| 20260831214021 | 21 | 158 | 1.6 | 4.8 | 0.00 | 0.08 | 0.08 | 85 | 1015.2 |
| 20260831213021 | 21 | 158 | 1.6 | 6.4 | 0.00 | 0.08 | 0.08 | 85 | 1015.4 |
| 20260831212021 | 21 | 180 | 4.8 | 8.0 | 0.00 | 0.08 | 0.08 | 84 | 1015.5 |
| 20260831211021 | 21 | 158 | 6.4 | 11.3 | 0.00 | 0.08 | 0.08 | 84 | 1015.5 |
| 20260831210021 | 21 | 158 | 4.8 | 6.4 | 0.00 | 0.08 | 0.08 | 84 | 1015.6 |
| 20260831205021 | 21 | 158 | 3.2 | 4.8 | 0.00 | 0.08 | 0.08 | 84 | 1015.8 |
| 20260831204021 | 21 | 158 | 3.2 | 8.0 | 0.00 | 0.08 | 0.08 | 84 | 1015.9 |
| 20260831203021 | 21 | 158 | 6.4 | 11.3 | 0.00 | 0.08 | 0.08 | 83 | 1015.9 |
| 20260831202021 | 21 | 180 | 3.2 | 9.7 | 0.00 | 0.08 | 0.08 | 83 | 1015.9 |
| 20260831201021 | 21 | 135 | 1.6 | 4.8 | 0.00 | 0.08 | 0.08 | 83 | 1015.8 |
| 20260831200021 | 21 | 0.0 | 3.2 | 0.00 | 0.08 | 0.08 | 83 | 1015.8 | |
| 20260831195023 | 21 | 158 | 1.6 | 3.2 | 0.00 | 0.08 | 0.08 | 83 | 1015.7 |
| 20260831194021 | 21 | 135 | 1.6 | 3.2 | 0.00 | 0.08 | 0.08 | 83 | 1015.9 |
| 20260831193021 | 21 | 0.0 | 1.6 | 0.00 | 0.08 | 0.08 | 83 | 1016.2 | |
| 20260831192021 | 21 | 158 | 1.6 | 3.2 | 0.00 | 0.08 | 0.08 | 83 | 1016.2 |
| 20260831191021 | 21 | 0.0 | 4.8 | 0.00 | 0.08 | 0.08 | 83 | 1016.3 | |
| 20260831190021 | 21 | 135 | 1.6 | 4.8 | 0.00 | 0.08 | 0.08 | 83 | 1016.4 |
| 20260831185021 | 21 | 158 | 3.2 | 6.4 | 0.00 | 0.08 | 0.08 | 83 | 1016.6 |
| 20260831184021 | 21 | 135 | 3.2 | 6.4 | 0.00 | 0.08 | 0.08 | 84 | 1016.4 |
| 20260831183021 | 21 | 158 | 1.6 | 6.4 | 0.00 | 0.08 | 0.08 | 84 | 1016.7 |
| 20260831182021 | 21 | 158 | 1.6 | 6.4 | 0.00 | 0.08 | 0.08 | 84 | 1016.7 |
| 20260831181020 | 20 | 158 | 3.2 | 8.0 | 0.03 | 0.08 | 0.08 | 85 | 1016.6 |
| 20260831180020 | 20 | 135 | 1.6 | 4.8 | 0.03 | 0.08 | 0.08 | 86 | 1016.9 |
| 20260831175021 | 20 | 135 | 1.6 | 4.8 | 0.03 | 0.08 | 0.08 | 86 | 1017.2 |
| 20260831174020 | 20 | 158 | 1.6 | 3.2 | 0.03 | 0.08 | 0.08 | 86 | 1017.3 |
| 20260831173020 | 20 | 158 | 1.6 | 6.4 | 0.03 | 0.08 | 0.08 | 85 | 1017.3 |
| 20260831172020 | 20 | 158 | 4.8 | 9.7 | 0.03 | 0.08 | 0.08 | 85 | 1017.3 |
| 20260831171021 | 20 | 180 | 3.2 | 8.0 | 0.00 | 0.05 | 0.05 | 85 | 1017.3 |
| 20260831170021 | 20 | 158 | 4.8 | 9.7 | 0.00 | 0.05 | 0.05 | 85 | 1017.5 |
| 20260831165021 | 20 | 158 | 4.8 | 8.0 | 0.00 | 0.05 | 0.05 | 85 | 1017.6 |
| 20260831164020 | 20 | 180 | 4.8 | 9.7 | 0.00 | 0.05 | 0.05 | 84 | 1017.8 |
| 20260831163040 | 20 | 158 | 4.8 | 8.0 | 0.03 | 0.05 | 0.05 | 84 | 1017.7 |
| 20260831162020 | 20 | 158 | 6.4 | 9.7 | 0.03 | 0.05 | 0.05 | 84 | 1017.8 |
| 20260831161020 | 20 | 158 | 3.2 | 9.7 | 0.03 | 0.05 | 0.05 | 84 | 1018.0 |
| 20260831160040 | 21 | 158 | 3.2 | 8.0 | 0.03 | 0.05 | 0.05 | 84 | 1017.8 |
| 20260831155021 | 20 | 180 | 6.4 | 11.3 | 0.05 | 0.05 | 0.05 | 85 | 1017.8 |
| 20260831154020 | 20 | 158 | 6.4 | 9.7 | 0.05 | 0.05 | 0.05 | 84 | 1017.9 |
| 20260831153020 | 20 | 158 | 8.0 | 14.5 | 0.03 | 0.03 | 0.03 | 84 | 1017.7 |
| 20260831152020 | 20 | 158 | 8.0 | 14.5 | 0.03 | 0.03 | 0.03 | 84 | 1018.0 |
| 20260831151028 | 20 | 158 | 4.8 | 8.0 | 0.03 | 0.03 | 0.03 | 84 | 1018.0 |
| 20260831150028 | 20 | 180 | 4.8 | 8.0 | 0.03 | 0.03 | 0.03 | 82 | 1018.2 |
| 20260831145020 | 20 | 180 | 4.8 | 11.3 | 0.00 | 0.00 | 0.00 | 82 | 1018.0 |
| 20260831144020 | 21 | 180 | 4.8 | 9.7 | 0.00 | 0.00 | 0.00 | 81 | 1017.9 |
| 20260831142020 | 21 | 135 | 3.2 | 9.7 | 0.00 | 0.00 | 0.00 | 78 | 1017.7 |
| 20260831141020 | 21 | 0.0 | 4.8 | 0.00 | 0.00 | 0.00 | 80 | 1017.7 | |
| 20260831140020 | 20 | 0.0 | 3.2 | 0.00 | 0.00 | 0.00 | 80 | 1017.7 | |
| 20260831135020 | 20 | 180 | 3.2 | 4.8 | 0.00 | 0.00 | 0.00 | 80 | 1017.7 |
| 20260831134028 | 20 | 180 | 1.6 | 4.8 | 0.00 | 0.00 | 0.00 | 81 | 1017.8 |
| 20260831133056 | 20 | 158 | 3.2 | 4.8 | 0.00 | 0.00 | 0.00 | 82 | 1017.9 |
| 20260831132029 | 19 | 158 | 3.2 | 8.0 | 0.00 | 0.00 | 0.00 | 83 | 1017.7 |
| 20260831131053 | 19 | 135 | 3.2 | 8.0 | 0.00 | 0.00 | 0.00 | 83 | 1017.7 |
| 20260831130047 | 18 | 158 | 4.8 | 8.0 | 0.00 | 0.00 | 0.00 | 84 | 1017.7 |
| 20260831125041 | 18 | 158 | 1.6 | 3.2 | 0.00 | 0.00 | 0.00 | 85 | 1017.9 |
| 20260831124021 | 18 | 158 | 6.4 | 9.7 | 0.00 | 0.00 | 0.00 | 85 | 1017.8 |
| 20260831123021 | 18 | 135 | 1.6 | 4.8 | 0.00 | 0.00 | 0.00 | 85 | 1018.1 |
| 20260831122021 | 18 | 158 | 4.8 | 8.0 | 0.00 | 0.00 | 0.00 | 86 | 1018.0 |
| 20260831121021 | 17 | 158 | 4.8 | 8.0 | 0.00 | 0.00 | 0.00 | 86 | 1018.2 |
| 20260831120023 | 17 | 158 | 3.2 | 8.0 | 0.00 | 0.00 | 0.00 | 87 | 1018.3 |
| 20260831115021 | 17 | 158 | 4.8 | 8.0 | 0.00 | 0.00 | 0.00 | 87 | 1018.3 |
| 20260831114022 | 17 | 158 | 4.8 | 6.4 | 0.00 | 0.00 | 0.00 | 87 | 1018.3 |